Time,TemperatureF,DewpointF,PressureIn,WindDirection,WindDirectionDegrees,WindSpeedMPH,WindSpeedGustMPH,Humidity,HourlyPrecipIn,Conditions,Clouds,dailyrainin,SoftwareType,DateUTC
2013-05-07 00:05:00,158.0,0.0,29.94,NNW,338,0.0,0.0,0,0.00,,---,0.00,VWS V14.00,2013-05-07 05:05:00,
2013-05-07 00:15:00,158.0,0.0,29.94,NNW,338,0.0,0.0,0,0.00,,---,0.00,VWS V14.00,2013-05-07 05:15:00,
2013-05-07 00:25:00,158.0,0.0,29.94,NNW,338,3.0,4.0,0,0.00,,---,0.00,VWS V14.00,2013-05-07 05:25:00,
2013-05-07 00:35:00,158.0,0.0,29.94,WNW,284,4.0,6.0,0,0.00,,---,0.00,VWS V14.00,2013-05-07 05:35:00,
2013-05-07 00:45:00,158.0,0.0,29.94,West,279,6.0,6.0,0,0.00,,---,0.00,VWS V14.00,2013-05-07 05:45:00,
2013-05-07 00:55:00,158.0,0.0,29.93,WNW,283,6.0,9.0,0,0.00,,---,0.00,VWS V14.00,2013-05-07 05:55:00,
2013-05-07 01:05:00,158.0,0.0,29.93,WNW,286,11.0,12.0,0,0.00,,---,0.00,VWS V14.00,2013-05-07 06:05:00,
2013-05-07 01:15:00,158.0,0.0,29.93,WNW,294,10.0,13.0,0,0.00,,---,0.00,VWS V14.00,2013-05-07 06:15:00,
2013-05-07 01:25:00,158.0,0.0,29.93,WNW,290,10.0,12.0,0,0.00,,---,0.00,VWS V14.00,2013-05-07 06:25:00,
2013-05-07 01:35:00,158.0,0.0,29.93,WNW,284,10.0,13.0,0,0.00,,---,0.00,VWS V14.00,2013-05-07 06:35:00,
2013-05-07 01:45:00,158.0,0.0,29.92,West,276,13.0,14.0,0,0.00,,---,0.00,VWS V14.00,2013-05-07 06:45:00,
2013-05-07 01:55:00,158.0,0.0,29.92,West,277,10.0,14.0,0,0.00,,---,0.00,VWS V14.00,2013-05-07 06:55:00,
2013-05-07 02:05:00,158.0,0.0,29.92,West,281,12.0,14.0,0,0.00,,---,0.00,VWS V14.00,2013-05-07 07:05:00,
2013-05-07 02:15:00,158.0,0.0,29.92,West,276,12.0,15.0,0,0.00,,---,0.00,VWS V14.00,2013-05-07 07:15:00,
2013-05-07 02:25:00,158.0,0.0,29.92,West,280,13.0,15.0,0,0.00,,---,0.00,VWS V14.00,2013-05-07 07:25:00,
2013-05-07 02:35:00,158.0,0.0,29.92,WNW,282,13.0,15.0,0,0.00,,---,0.00,VWS V14.00,2013-05-07 07:35:00,
2013-05-07 02:45:00,158.0,0.0,29.92,West,276,13.0,16.0,0,0.00,,---,0.00,VWS V14.00,2013-05-07 07:45:00,
2013-05-07 02:55:00,158.0,0.0,29.92,West,271,13.0,16.0,0,0.00,,---,0.00,VWS V14.00,2013-05-07 07:55:00,
2013-05-07 03:05:00,158.0,0.0,29.92,West,274,12.0,15.0,0,0.00,,---,0.00,VWS V14.00,2013-05-07 08:05:00,
2013-05-07 03:15:00,158.0,0.0,29.92,West,277,13.0,14.0,0,0.00,,---,0.00,VWS V14.00,2013-05-07 08:15:00,
2013-05-07 03:25:00,158.0,0.0,29.92,West,279,12.0,14.0,0,0.00,,---,0.00,VWS V14.00,2013-05-07 08:25:00,
2013-05-07 03:35:00,158.0,0.0,29.92,West,279,13.0,15.0,0,0.00,,---,0.00,VWS V14.00,2013-05-07 08:35:00,
2013-05-07 03:45:00,158.0,0.0,29.92,West,281,14.0,15.0,0,0.00,,---,0.00,VWS V14.00,2013-05-07 08:45:00,
2013-05-07 03:55:00,158.0,0.0,29.92,WNW,290,13.0,16.0,0,0.00,,---,0.00,VWS V14.00,2013-05-07 08:55:00,
2013-05-07 04:05:00,158.0,0.0,29.92,WNW,292,14.0,15.0,0,0.00,,---,0.00,VWS V14.00,2013-05-07 09:05:00,
2013-05-07 04:15:00,158.0,0.0,29.92,WNW,292,11.0,16.0,0,0.00,,---,0.00,VWS V14.00,2013-05-07 09:15:00,
2013-05-07 04:25:00,158.0,0.0,29.93,WNW,292,12.0,14.0,0,0.00,,---,0.00,VWS V14.00,2013-05-07 09:25:00,
2013-05-07 04:35:00,158.0,0.0,29.92,NW,306,12.0,13.0,0,0.00,,---,0.00,VWS V14.00,2013-05-07 09:35:00,
2013-05-07 04:45:00,158.0,0.0,29.92,WNW,298,10.0,13.0,0,0.00,,---,0.00,VWS V14.00,2013-05-07 09:45:00,
2013-05-07 04:55:00,158.0,0.0,29.92,WNW,296,13.0,13.0,0,0.00,,---,0.00,VWS V14.00,2013-05-07 09:55:00,
2013-05-07 05:05:00,158.0,0.0,29.92,WNW,298,10.0,13.0,0,0.00,,---,0.00,VWS V14.00,2013-05-07 10:05:00,
2013-05-07 05:15:00,158.0,0.0,29.93,WNW,293,10.0,13.0,0,0.00,,---,0.00,VWS V14.00,2013-05-07 10:15:00,
2013-05-07 05:25:00,158.0,0.0,29.93,WNW,287,10.0,11.0,0,0.00,,---,0.00,VWS V14.00,2013-05-07 10:25:00,
2013-05-07 05:35:00,158.0,0.0,29.93,West,266,10.0,13.0,0,0.00,,---,0.00,VWS V14.00,2013-05-07 10:35:00,
2013-05-07 05:45:00,158.0,0.0,29.94,West,266,12.0,13.0,0,0.00,,---,0.00,VWS V14.00,2013-05-07 10:45:00,
2013-05-07 05:55:00,158.0,0.0,29.94,West,262,12.0,13.0,0,0.00,,---,0.00,VWS V14.00,2013-05-07 10:55:00,
2013-05-07 06:05:00,158.0,0.0,29.95,West,266,11.0,13.0,0,0.00,,---,0.00,VWS V14.00,2013-05-07 11:05:00,
2013-05-07 06:15:00,158.0,0.0,29.95,West,266,11.0,12.0,0,0.00,,---,0.00,VWS V14.00,2013-05-07 11:15:00,
2013-05-07 06:25:00,158.0,0.0,29.96,West,273,10.0,12.0,0,0.00,,---,0.00,VWS V14.00,2013-05-07 11:25:00,
2013-05-07 06:35:00,158.0,0.0,29.96,West,278,10.0,12.0,0,0.00,,---,0.00,VWS V14.00,2013-05-07 11:35:00,
2013-05-07 06:45:00,158.0,0.0,29.97,West,277,9.0,13.0,0,0.00,,---,0.00,VWS V14.00,2013-05-07 11:45:00,
2013-05-07 06:55:00,158.0,0.0,29.97,West,268,13.0,13.0,0,0.00,,---,0.00,VWS V14.00,2013-05-07 11:55:00,
2013-05-07 07:05:00,158.0,0.0,29.97,West,279,12.0,13.0,0,0.00,,---,0.00,VWS V14.00,2013-05-07 12:05:00,
2013-05-07 07:15:00,158.0,0.0,29.97,WNW,285,11.0,13.0,0,0.00,,---,0.00,VWS V14.00,2013-05-07 12:15:00,
2013-05-07 07:25:00,158.0,0.0,29.98,West,272,8.0,12.0,0,0.00,,---,0.00,VWS V14.00,2013-05-07 12:25:00,
2013-05-07 07:35:00,158.0,0.0,29.98,West,281,10.0,12.0,0,0.00,,---,0.00,VWS V14.00,2013-05-07 12:35:00,
2013-05-07 07:45:00,158.0,0.0,29.99,WNW,286,9.0,12.0,0,0.00,,---,0.00,VWS V14.00,2013-05-07 12:45:00,
2013-05-07 07:55:00,158.0,0.0,29.99,West,279,9.0,11.0,0,0.00,,---,0.00,VWS V14.00,2013-05-07 12:55:00,
2013-05-07 08:05:00,158.0,0.0,30.00,West,271,10.0,10.0,0,0.00,,---,0.00,VWS V14.00,2013-05-07 13:05:00,
2013-05-07 08:15:00,158.0,0.0,30.00,West,279,8.0,11.0,0,0.00,,---,0.00,VWS V14.00,2013-05-07 13:15:00,
2013-05-07 08:25:00,158.0,0.0,30.00,West,276,7.0,10.0,0,0.00,,---,0.00,VWS V14.00,2013-05-07 13:25:00,
2013-05-07 08:35:00,158.0,0.0,30.00,West,281,5.0,9.0,0,0.00,,---,0.00,VWS V14.00,2013-05-07 13:35:00,
2013-05-07 08:45:00,158.0,0.0,30.00,WNW,284,6.0,8.0,0,0.00,,---,0.00,VWS V14.00,2013-05-07 13:45:00,
2013-05-07 08:55:00,158.0,0.0,30.00,West,276,7.0,7.0,0,0.00,,---,0.00,VWS V14.00,2013-05-07 13:55:00,
2013-05-07 09:05:00,158.0,0.0,30.00,West,271,4.0,7.0,0,0.00,,---,0.00,VWS V14.00,2013-05-07 14:05:00,
2013-05-07 09:15:00,158.0,0.0,30.01,WNW,292,4.0,7.0,0,0.00,,---,0.00,VWS V14.00,2013-05-07 14:15:00,
2013-05-07 09:25:00,158.0,0.0,30.01,WNW,298,5.0,7.0,0,0.00,,---,0.00,VWS V14.00,2013-05-07 14:25:00,
2013-05-07 09:35:00,158.0,0.0,30.00,WNW,298,5.0,5.0,0,0.00,,---,0.00,VWS V14.00,2013-05-07 14:35:00,
2013-05-07 09:45:00,158.0,0.0,30.01,NW,323,4.0,6.0,0,0.00,,---,0.00,VWS V14.00,2013-05-07 14:45:00,
2013-05-07 09:55:00,158.0,0.0,30.01,NW,323,4.0,5.0,0,0.00,,---,0.00,VWS V14.00,2013-05-07 14:55:00,
2013-05-07 10:05:00,158.0,0.0,30.01,NW,323,2.0,4.0,0,0.00,,---,0.00,VWS V14.00,2013-05-07 15:05:00,
2013-05-07 10:15:00,158.0,0.0,30.01,NW,323,0.0,3.0,0,0.00,,---,0.00,VWS V14.00,2013-05-07 15:15:00,
2013-05-07 10:25:00,158.0,0.0,30.01,NW,323,0.0,0.0,0,0.00,,---,0.00,VWS V14.00,2013-05-07 15:25:00,
2013-05-07 10:35:00,158.0,0.0,30.00,NW,323,0.0,0.0,0,0.00,,---,0.00,VWS V14.00,2013-05-07 15:35:00,
2013-05-07 10:45:00,158.0,0.0,30.01,NW,323,0.0,0.0,0,0.00,,---,0.00,VWS V14.00,2013-05-07 15:45:00,
2013-05-07 10:55:00,158.0,0.0,30.00,NW,323,0.0,0.0,0,0.00,,---,0.00,VWS V14.00,2013-05-07 15:55:00,
2013-05-07 11:05:00,158.0,0.0,30.00,NW,323,0.0,0.0,0,0.00,,---,0.00,VWS V14.00,2013-05-07 16:05:00,
2013-05-07 11:15:00,158.0,0.0,30.00,NW,323,3.0,3.0,0,0.00,,---,0.00,VWS V14.00,2013-05-07 16:15:00,
2013-05-07 11:25:00,158.0,0.0,30.00,NW,323,0.0,3.0,0,0.00,,---,0.00,VWS V14.00,2013-05-07 16:25:00,
2013-05-07 11:35:00,158.0,0.0,30.00,South,184,2.0,3.0,0,0.00,,---,0.00,VWS V14.00,2013-05-07 16:35:00,
2013-05-07 11:45:00,158.0,0.0,29.99,SSE,152,3.0,5.0,0,0.00,,---,0.00,VWS V14.00,2013-05-07 16:45:00,
2013-05-07 11:55:00,158.0,0.0,29.99,SSE,159,3.0,5.0,0,0.00,,---,0.00,VWS V14.00,2013-05-07 16:55:00,
2013-05-07 12:05:00,158.0,0.0,29.99,SSE,166,4.0,6.0,0,0.00,,---,0.00,VWS V14.00,2013-05-07 17:05:00,
2013-05-07 12:15:00,158.0,0.0,29.99,South,172,5.0,9.0,0,0.00,,---,0.00,VWS V14.00,2013-05-07 17:15:00,
2013-05-07 12:25:00,158.0,0.0,29.99,South,173,10.0,12.0,0,0.00,,---,0.00,VWS V14.00,2013-05-07 17:25:00,
2013-05-07 12:35:00,158.0,0.0,29.98,South,169,9.0,14.0,0,0.00,,---,0.00,VWS V14.00,2013-05-07 17:35:00,
2013-05-07 12:45:00,158.0,0.0,29.98,SSE,165,12.0,15.0,0,0.00,,---,0.00,VWS V14.00,2013-05-07 17:45:00,
2013-05-07 12:55:00,158.0,0.0,29.98,SSE,165,12.0,15.0,0,0.00,,---,0.00,VWS V14.00,2013-05-07 17:55:00,
2013-05-07 13:05:00,158.0,0.0,29.98,SSE,168,11.0,15.0,0,0.00,,---,0.00,VWS V14.00,2013-05-07 18:05:00,
2013-05-07 13:15:00,158.0,0.0,29.98,SSE,166,10.0,14.0,0,0.00,,---,0.00,VWS V14.00,2013-05-07 18:15:00,
2013-05-07 13:25:00,158.0,0.0,29.98,SSE,167,11.0,15.0,0,0.00,,---,0.00,VWS V14.00,2013-05-07 18:25:00,
2013-05-07 13:35:00,158.0,0.0,29.97,SSE,161,13.0,14.0,0,0.00,,---,0.00,VWS V14.00,2013-05-07 18:35:00,
2013-05-07 13:45:00,158.0,0.0,29.97,SSE,163,10.0,14.0,0,0.00,,---,0.00,VWS V14.00,2013-05-07 18:45:00,
2013-05-07 13:55:00,158.0,0.0,29.97,SSE,166,12.0,14.0,0,0.00,,---,0.00,VWS V14.00,2013-05-07 18:55:00,
2013-05-07 14:05:00,158.0,0.0,29.97,SSE,167,11.0,15.0,0,0.00,,---,0.00,VWS V14.00,2013-05-07 19:05:00,
2013-05-07 14:15:00,158.0,0.0,29.97,South,173,13.0,17.0,0,0.00,,---,0.00,VWS V14.00,2013-05-07 19:15:00,
2013-05-07 14:25:00,158.0,0.0,29.97,South,169,11.0,15.0,0,0.00,,---,0.00,VWS V14.00,2013-05-07 19:25:00,
2013-05-07 14:35:00,158.0,0.0,29.97,South,180,14.0,16.0,0,0.00,,---,0.00,VWS V14.00,2013-05-07 19:35:00,
2013-05-07 14:45:00,158.0,0.0,29.96,South,175,12.0,15.0,0,0.00,,---,0.00,VWS V14.00,2013-05-07 19:45:00,
2013-05-07 14:55:00,158.0,0.0,29.96,South,173,11.0,15.0,0,0.00,,---,0.00,VWS V14.00,2013-05-07 19:55:00,
2013-05-07 15:05:00,158.0,0.0,29.96,SSE,167,10.0,16.0,0,0.00,,---,0.00,VWS V14.00,2013-05-07 20:05:00,
2013-05-07 15:15:00,158.0,0.0,29.95,SSE,162,10.0,13.0,0,0.00,,---,0.00,VWS V14.00,2013-05-07 20:15:00,
2013-05-07 15:25:00,158.0,0.0,29.95,South,169,8.0,13.0,0,0.00,,---,0.00,VWS V14.00,2013-05-07 20:25:00,
2013-05-07 15:35:00,158.0,0.0,29.95,SSE,167,12.0,13.0,0,0.00,,---,0.00,VWS V14.00,2013-05-07 20:35:00,
2013-05-07 15:45:00,158.0,0.0,29.95,South,175,10.0,14.0,0,0.00,,---,0.00,VWS V14.00,2013-05-07 20:45:00,
2013-05-07 15:55:00,158.0,0.0,29.95,SSE,164,10.0,12.0,0,0.00,,---,0.00,VWS V14.00,2013-05-07 20:55:00,
2013-05-07 16:05:00,158.0,0.0,29.95,SSE,163,9.0,13.0,0,0.00,,---,0.00,VWS V14.00,2013-05-07 21:05:00,
2013-05-07 16:15:00,158.0,0.0,29.95,South,184,13.0,14.0,0,0.00,,---,0.00,VWS V14.00,2013-05-07 21:15:00,
2013-05-07 16:25:00,158.0,0.0,29.95,SSW,194,13.0,15.0,0,0.00,,---,0.00,VWS V14.00,2013-05-07 21:25:00,
2013-05-07 16:35:00,158.0,0.0,29.95,SSW,193,15.0,16.0,0,0.00,,---,0.00,VWS V14.00,2013-05-07 21:35:00,
2013-05-07 16:45:00,158.0,0.0,29.95,SSW,198,13.0,17.0,0,0.00,,---,0.00,VWS V14.00,2013-05-07 21:45:00,
2013-05-07 16:55:00,158.0,0.0,29.95,SSW,193,14.0,15.0,0,0.00,,---,0.00,VWS V14.00,2013-05-07 21:55:00,
2013-05-07 17:05:00,158.0,0.0,29.95,South,191,13.0,17.0,0,0.00,,---,0.00,VWS V14.00,2013-05-07 22:05:00,
2013-05-07 17:15:00,158.0,0.0,29.95,SSW,202,14.0,15.0,0,0.00,,---,0.00,VWS V14.00,2013-05-07 22:15:00,
2013-05-07 17:25:00,158.0,0.0,29.94,SSW,200,14.0,15.0,0,0.00,,---,0.00,VWS V14.00,2013-05-07 22:25:00,
2013-05-07 17:35:00,158.0,0.0,29.94,SSW,201,13.0,16.0,0,0.00,,---,0.00,VWS V14.00,2013-05-07 22:35:00,
2013-05-07 17:45:00,158.0,0.0,29.94,SSW,202,13.0,16.0,0,0.00,,---,0.00,VWS V14.00,2013-05-07 22:45:00,
2013-05-07 17:55:00,158.0,0.0,29.94,SSW,201,12.0,16.0,0,0.00,,---,0.00,VWS V14.00,2013-05-07 22:55:00,
2013-05-07 18:05:00,158.0,0.0,29.94,SSW,201,11.0,14.0,0,0.00,,---,0.00,VWS V14.00,2013-05-07 23:05:00,
2013-05-07 18:15:00,158.0,0.0,29.95,SSW,209,9.0,13.0,0,0.00,,---,0.00,VWS V14.00,2013-05-07 23:15:00,
2013-05-07 18:25:00,158.0,0.0,29.95,SSW,209,7.0,13.0,0,0.00,,---,0.00,VWS V14.00,2013-05-07 23:25:00,
2013-05-07 18:35:00,158.0,0.0,29.96,SSW,210,10.0,11.0,0,0.00,,---,0.00,VWS V14.00,2013-05-07 23:35:00,
2013-05-07 18:45:00,158.0,0.0,29.96,SSW,211,7.0,11.0,0,0.00,,---,0.00,VWS V14.00,2013-05-07 23:45:00,
2013-05-07 18:55:00,158.0,0.0,29.96,SSW,213,10.0,11.0,0,0.00,,---,0.00,VWS V14.00,2013-05-07 23:55:00,
2013-05-07 19:05:00,158.0,0.0,29.96,SW,221,10.0,13.0,0,0.00,,---,0.00,VWS V14.00,2013-05-08 00:05:00,
2013-05-07 19:15:00,158.0,0.0,29.96,SW,219,11.0,13.0,0,0.00,,---,0.00,VWS V14.00,2013-05-08 00:15:00,
2013-05-07 19:25:00,158.0,0.0,29.97,SW,224,10.0,12.0,0,0.00,,---,0.00,VWS V14.00,2013-05-08 00:25:00,
2013-05-07 19:35:00,158.0,0.0,29.97,SW,231,7.0,10.0,0,0.00,,---,0.00,VWS V14.00,2013-05-08 00:35:00,
2013-05-07 19:45:00,158.0,0.0,29.97,SW,234,7.0,10.0,0,0.00,,---,0.00,VWS V14.00,2013-05-08 00:45:00,
2013-05-07 19:55:00,158.0,0.0,29.97,SW,234,6.0,8.0,0,0.00,,---,0.00,VWS V14.00,2013-05-08 00:55:00,
2013-05-07 20:05:00,158.0,0.0,29.97,SW,235,4.0,7.0,0,0.00,,---,0.00,VWS V14.00,2013-05-08 01:05:00,
2013-05-07 20:15:00,158.0,0.0,29.97,SW,235,2.0,5.0,0,0.00,,---,0.00,VWS V14.00,2013-05-08 01:15:00,
2013-05-07 20:25:00,158.0,0.0,29.98,South,171,5.0,5.0,0,0.00,,---,0.00,VWS V14.00,2013-05-08 01:25:00,
2013-05-07 20:35:00,158.0,0.0,29.98,South,171,3.0,5.0,0,0.00,,---,0.00,VWS V14.00,2013-05-08 01:35:00,
2013-05-07 20:45:00,158.0,0.0,29.98,South,182,6.0,6.0,0,0.00,,---,0.00,VWS V14.00,2013-05-08 01:45:00,
2013-05-07 20:55:00,158.0,0.0,29.99,South,176,4.0,6.0,0,0.00,,---,0.00,VWS V14.00,2013-05-08 01:55:00,
2013-05-07 21:05:00,158.0,0.0,29.99,South,175,4.0,5.0,0,0.00,,---,0.00,VWS V14.00,2013-05-08 02:05:00,
2013-05-07 21:15:00,158.0,0.0,29.99,South,175,3.0,5.0,0,0.00,,---,0.00,VWS V14.00,2013-05-08 02:15:00,
2013-05-07 21:25:00,158.0,0.0,29.99,South,175,3.0,4.0,0,0.00,,---,0.00,VWS V14.00,2013-05-08 02:25:00,
2013-05-07 21:35:00,158.0,0.0,29.99,South,175,2.0,4.0,0,0.00,,---,0.00,VWS V14.00,2013-05-08 02:35:00,
2013-05-07 21:45:00,158.0,0.0,29.99,South,175,3.0,4.0,0,0.00,,---,0.00,VWS V14.00,2013-05-08 02:45:00,
2013-05-07 21:55:00,158.0,0.0,30.00,South,175,0.0,3.0,0,0.00,,---,0.00,VWS V14.00,2013-05-08 02:55:00,
2013-05-07 22:05:00,158.0,0.0,30.00,South,175,0.0,0.0,0,0.00,,---,0.00,VWS V14.00,2013-05-08 03:05:00,
2013-05-07 22:15:00,158.0,0.0,30.00,South,175,0.0,0.0,0,0.00,,---,0.00,VWS V14.00,2013-05-08 03:15:00,
2013-05-07 22:25:00,158.0,0.0,30.00,South,175,0.0,0.0,0,0.00,,---,0.00,VWS V14.00,2013-05-08 03:25:00,
2013-05-07 22:35:00,158.0,0.0,30.00,South,175,0.0,0.0,0,0.00,,---,0.00,VWS V14.00,2013-05-08 03:35:00,
2013-05-07 22:45:00,158.0,0.0,30.00,South,175,0.0,0.0,0,0.00,,---,0.00,VWS V14.00,2013-05-08 03:45:00,
2013-05-07 22:55:00,158.0,0.0,30.00,South,175,0.0,0.0,0,0.00,,---,0.00,VWS V14.00,2013-05-08 03:55:00,
2013-05-07 23:05:00,158.0,0.0,30.00,South,175,0.0,0.0,0,0.00,,---,0.00,VWS V14.00,2013-05-08 04:05:00,
2013-05-07 23:15:00,158.0,0.0,30.00,South,175,0.0,0.0,0,0.00,,---,0.00,VWS V14.00,2013-05-08 04:15:00,
2013-05-07 23:25:00,158.0,0.0,30.00,South,175,0.0,0.0,0,0.00,,---,0.00,VWS V14.00,2013-05-08 04:25:00,
2013-05-07 23:35:00,158.0,0.0,30.00,South,175,0.0,0.0,0,0.00,,---,0.00,VWS V14.00,2013-05-08 04:35:00,
2013-05-07 23:45:00,158.0,0.0,30.00,South,175,0.0,0.0,0,0.00,,---,0.00,VWS V14.00,2013-05-08 04:45:00,
2013-05-07 23:55:00,158.0,0.0,30.00,South,175,0.0,0.0,0,0.00,,---,0.00,VWS V14.00,2013-05-08 04:55:00,